sat.trackr.live / text

‹ back to catalog

ASTROCAST-0402

NORAD 55109 · 2023-001DE

PAYLOAD ACTIVE UNKNOWN

§ Identity

Operator
Country
SWTZ
Launch date
2023-01-03
Launch site
AFETR
Launch vehicle
Mass (kg)
RCS (m²)

External: N2YO · Heavens-Above · Gunter

§ Orbital elements

Epoch: 2026-05-25T04:37:43.631904Z

Period
94.24 min
Inclination
97.5565°
Eccentricity
0.0003613
Mean motion
15.28028492 rev/d
Perigee alt
479.2 km
Apogee alt
484.2 km
Semi-major
6,859.8 km
B*
3.7074e-4
RAAN
238.0575°
Arg perigee
341.3900°
Mean anomaly
18.7206°
Rev number
14,102

§ Raw data

ASTROCAST-04021 55109U 23001DE  26145.19286611  .00010064  00000+0  37074-3 0  99922 55109  97.5565 238.0575 0003613 341.3900  18.7206 15.28028492141025

JSON: /api/v1/satellites/55109 · /tle

For live sub-satellite position, see the globe view (requires WebGL).

§ Visibility from observer

Set your observer location to see the next 7 days of passes ≥ 10°. The values pass through the URL so the page stays shareable.

No JS? Fill the form by hand. The geolocation button needs JavaScript.